www.pogodaiklimat.ru

Погода и климат >> Архив погоды >> Мексика >> Choix


ПОГОДА в Choix

  • Прогноз погоды в Choix
  • Монитор погоды в Choix
  • Климат города

АРХИВ ПОГОДЫ в Choix

Время (UTC), дата Ветер
(напр.,м/с)
 
Видим.   Явления Облачность Т
(С)
Тd
(С)
f
(%)
Тe
(С)
Тes
(С)
Комфортность P
(гПа)
Po
(гПа)
Тmin
(С)
Tmax
(С)
R
(мм)
R24
(мм)
S
(см)
21 10.10 ЮЗ 5 30 км ясно +39.5 +27.6 51 +58 +64 опасность
перегрева
1005.6 979.0
00 11.10 ЮЗ 5 30 км ясно +38.4 +26.3 50 +54 +54 опасность
перегрева
1003.9 977.7 +20.9 +39.9
03 11.10 СЗ 4 2000 м ясно +30.0 +24.1 71 +42 +42 опасность
перегрева
1005.7 979.7
06 11.10 С 1 2000 м слабая морось 10/10 600 м
[Frnb]
+25.4 +23.9 91 +35 +35 очень
душно
1007.2 981.1 0.5
09 11.10 ЮЗ 1 8000 м ясно +23.4 +22.0 92 +32 +32 очень
душно
1007.3 980.9
12 11.10 штиль 0 8000 м ясно +21.8 +20.2 91 +28 +28 душно 1008.2 981.4 +21.6 +39.9
15 11.10 ЮЗ 1 30 км ясно +25.8 +23.8 89 +35 +38 очень
душно
1010.7 983.6
18 11.10 СВ 2 30 км ясно +36.3 +30.0 70 +63 +76 опасность
перегрева
1009.5 982.6 +21.2 +36.6
21 11.10 штиль 0 30 км 3/3 600 м
[Cu hum]
+40.4 +28.3 51 +61 +71 опасность
перегрева
1006.6 980.1
00 12.10 штиль 0 30 км 6/6 600 м
[Cu med, cong]
+32.6 +21.6 52 +41 +41 опасность
перегрева
1006.7 980.5 +21.2 +41.0
03 12.10 штиль 0 2000 м ясно +29.8 +23.0 67 +40 +40 очень
душно
1008.0 981.9
06 12.10 штиль 0 2000 м ясно +27.0 +22.1 75 +35 +35 очень
душно
1009.6 983.4 +21.2 +41.0
09 12.10 штиль 0 6000 м ясно +24.5 +20.4 78 +30 +30 очень
душно
1009.4 982.9
12 12.10 штиль 0 6000 м ясно +22.6 +18.8 79 +28 +28 душно 1009.7 985.6 +22.3 +41.0
15 12.10 штиль 0 30 км ясно +25.1 +20.1 74 +31 +34 очень
душно
1011.4 984.4
18 12.10 штиль 0 30 км ясно +34.9 +24.2 54 +47 +64 опасность
перегрева
1011.1 984.1 +22.1 +35.1
00 13.10 ЮВ 1 30 км ясно +28.6 +24 +25 комфорт 1006.8 980.5 +22.1 +39.0
03 13.10 штиль 0 2000 м ясно +29.7 +25.6 79 +44 +44 опасность
перегрева
1009.5 983.3
06 13.10 штиль 0 2000 м ясно +26.9 +24.1 85 +37 +37 очень
душно
1010.0 983.8 +22.1 +39.0
12 13.10 штиль 0 6000 м ясно +23.5 +19.3 77 +28 +28 душно 1010.3 983.6 +19.0 +39.0
15 13.10 штиль 0 30 км ясно +28.3 +20.1 61 +35 +38 очень
душно
1001.2 985.2
18 13.10 штиль 0 30 км ясно +34.8 +24.1 54 +47 +64 опасность
перегрева
1011.3 984.5 +21.5 +36.0
21 13.10 штиль 0 30 км ясно +38.7 +28.4 56 +60 +74 опасность
перегрева
1008.0 981.5
00 14.10 З 1 30 км 5/5 600 м
[Sc diur, vesp]
+38.4 +28.5 57 +59 +60 опасность
перегрева
1009.0 982.8 +21.5 +39.6
03 14.10 ЮЗ 1 2000 м в посл. час морось {дождь} 10/10 600 м
[Frnb]
+25.4 +20.3 73 +31 +31 очень
душно
1009.5 983.3 8
06 14.10 штиль 0 2000 м {морось} 3/3 300 м
[Cu med, cong]
+24.4 +19.6 75 +30 +30 очень
душно
1010.0 983.7 8
09 14.10 штиль 0 2000 м 4/4 750 м
[Sc diur, vesp]
+24.2 +19.4 75 +29 +29 душно 1010.0 983.4
12 14.10 штиль 0 2000 м 6/6 750 м
[Sc]
+23.7 +19.4 77 +29 +29 душно 1010.8 983.8 +23.5 +39.6
15 14.10 ЮЗ 1 30 км 6/6 750 м
[Sc]
+24.8 +20.5 77 +31 +32 очень
душно
1011.9 984.8
18 14.10 штиль 0 30 км 5/5 750 м
[Sc diur, vesp]
+33.5 +25.4 63 +48 +57 опасность
перегрева
1011.7 984.7 +23.1 +33.7
21 14.10 СВ 1 30 км 3/3 750 м
[Sc diur, vesp]
+37.2 +27.7 58 +56 +65 опасность
перегрева
1008.8 982.1
00 15.10 штиль 0 30 км 6/6 300 м
[Cu med, cong]
+34.8 +25.9 60 +50 +51 опасность
перегрева
1007.2 980.9 +23.1 +38.9
03 15.10 штиль 0 2000 м {гроза, дождь} 9/9 600 м
[Frnb]
+23.8 +19.8 78 +29 +29 душно 1010.2 983.8 19
06 15.10 штиль 0 2000 м {гроза, дождь} 4/4 300 м
[Cu med, cong]
+23.1 +19.6 81 +30 +30 очень
душно
1011.3 984.8 19
09 15.10 штиль 0 2000 м 4/4 600 м
[Cu med, cong]
+21.7 +19.1 85 +27 +27 душно 1012.1 985.3
12 15.10 штиль 0 2000 м ясно +20.9 +18.8 88 +25 +25 комфорт 1012.5 985.3 +20.7 +38.9
15 15.10 штиль 0 30 км 1/1 750 м
[Sc diur, vesp]
+23.1 +19.8 82 +30 +32 очень
душно
1013.1 985.8
18 15.10 штиль 0 30 км ясно +32.5 +26.5 71 +49 +66 опасность
перегрева
1013.4 986.2 +33.2
21 15.10 СВ 1 30 км ясно +39.9 +31.9 64 +72 +85 опасность
перегрева
1009.9 983.1
00 16.10 ЮЗ 1 30 км 3/3 300 м
[Cu med, cong]
+39.7 +31.7 64 +71 +72 опасность
перегрева
1008.1 981.7 +19.9 +40.4
03 16.10 СВ 2 2000 м 6/6 600 м
[Frnb]
+32.0 +25.9 70 +47 +47 опасность
перегрева
1012.0 985.8
06 16.10 В 1 2000 м слабая морось 10/10 300 м
[Frnb]
+23.4 +19.2 77 +30 +30 очень
душно
1012.8 986.5 5
09 16.10 штиль 0 2000 м 3/3 750 м
[Sc diur, vesp]
+22.8 +19.0 79 +29 +29 очень
душно
1009.8 983.3
12 16.10 штиль 0 2000 м ясно +21.4 +18.0 81 +26 +26 душно 1011.6 984.7 +21.2 +40.4
15 16.10 штиль 0 30 км ясно +24.3 +19.8 76 +30 +33 очень
душно
1012.9 985.7
18 16.10 СВ 1 30 км ясно +38.4 +32.0 70 +72 +87 опасность
перегрева
1012.8 985.8 +20.4 +38.6
21 16.10 СВ 1 30 км 1/1 600 м
[Cu med, cong]
+41.1 +32.4 62 +75 +86 опасность
перегрева
1010.0 983.4
00 17.10 СВ 1 30 км ясно +39.5 +31.8 65 +71 +72 опасность
перегрева
1008.4 982.3 +20.4 +41.7
03 17.10 СВ 2 2000 м ясно +30.1 +25.9 78 +45 +45 опасность
перегрева
1010.4 984.5
09 17.10 З 1 2000 м ясно +23.0 +21.6 92 +31 +31 очень
душно
1012.1 985.5
12 17.10 З 1 2000 м ясно +20.8 +19.6 93 +26 +26 душно 1012.0 985.0 +20.6 +41.7
15 17.10 З 1 30 км ясно +25.3 +23.0 87 +34 +36 очень
душно
1013.4 986.2

 

Местоположение метеостанции Choix (Мексика): широта 26.73 долгота -108.20 высота над уровнем моря 238 м.

В архиве по умолчанию представлена погода в Choix за последнюю неделю. Архивные данные за месяц целиком и за предыдущие месяцы, начиная с января 2011 года, Вы можете получить, выбрав интересующий диапазон дат из раскрывающегося списка и нажав кнопку "Ввод!".

Внимание! Время в таблицах - всемирное. Для получения местного времени необходимо прибавить поправку, которая в Choix равна -6 ч.

Смотрите также архив погоды в соседних городах и на ближайших метеорологических станциях:

Погода в Ciudad Obregon (Мексика) (177 км)
Погода в Culiacan (Мексика) (229 км)
Погода в Temosachic (Мексика) (250 км)
Погода в Hidalgo del Parral (Мексика) (259 км)
Погода в Empalme (Мексика) (282 км)
Погода в Tepehuanes (Мексика) (292 км)
Погода в Guaymas Upper Air Site (Мексика) (296 км)
Погода в Chihuahua (Мексика) (303 км)
Погода в Chihuahua University (Мексика) (303 км)
Погода в Loreto (Мексика) (319 км)

Пояснения к столбцам:

Ветер - указаны скорость ветра в м/с - средняя за 10 мин, порывы в срок и между сроками (в фигурных скобках) и направление, откуда дует ветер: С - северный, СВ - северо-восточный, В - восточный, ЮВ - юго-восточный, Ю - южный, ЮЗ - юго-западный, З - западный, СЗ - северо-западный.
Видимость - горизонтальная дальность видимости в метрах или километрах. При видимости от 1 до 10 км при отсутствии осадков обычно наблюдается дымка, при ухудшении видимости до 1 км и менее - туман. В сухую погоду видимость может ухудшаться дымом, пылью или мглою.
Явления - указаны атмосферные явления, наблюдавшиеся в срок или в последний час перед сроком; фигурными скобками обозначены явления, наблюдавшиеся между сроками (за 1-3 часа до срока); квадратными скобками обозначены град или гололедные отложения с указанием их диаметра в мм.
Облачность - указаны через наклонную черту общая и нижняя облачность в баллах и высота нижней границы облаков в метрах; квадратными скобками обозначены формы облаков: Ci - перистые, Cs - перисто-слоистые, Cc - перисто-кучевые, Ac - высококучевые, As - высокослоистые, Sc - слоисто-кучевые, Ns - слоисто-дождевые, Cu - кучевые, Cb - кучево-дождевые. Подробнее классификацию облаков см. в Атласе облаков (PDF).
T - Температура воздуха - температура, измеренная на высоте 2 м над землей.
Td - Температура точки росы - температура, при понижении до которой содержащийся в воздухе водяной пар достигнет насыщения.
f - Относительная влажность воздуха - влажноcть воздуха, измеренная на высоте 2 м над землей.
Te - Эффективная температура - температура, которую ощущает одетый по сезону человек в тени. Характеристика душности погоды. При расчете учитывается влияние влажности воздуха и скорости ветра на теплоощущения человека.
Tes - Эффективная температура на солнце - температура, которую ощущает человек, с поправкой на солнечный нагрев. Характеристика знойности погоды. Зависит от высоты солнца над горизонтом, облачности и скорости ветра. Ночью, в пасмурную погоду, а также при ветре 12 м/с и более поправка равна нулю.
P - Атмосферное давление - приведенное к уровню моря атмосферное давление.
Po - Атмосферное давление - измеренное на уровне метеостанции атмосферное давление.
Tmin - Минимальная температура - минимум температуры воздуха на высоте 2 м над землей.
Tmax - Максимальная температура - максимум температуры воздуха на высоте 2 м над землей.
R - Количество осадков - Количество выпавших осадков за период времени, мм. При наведении курсора мыши на число - период времени, за который выпало указанное количество осадков.
R24 - Количество осадков - Количество выпавших осадков за 24 часа, мм.
S - Снежный покров - Высота снежного покрова, см. При наведении курсора мыши на число - состояние снежного покрова и степень покрытия местности в баллах.